COSMOS 2251 DEB, 34014

Orbit data source: Space-Track

COSMOS 2251 DEB, 34014 is space debris in LEO originally from a launch on Wed, 16 Jun 1993 UTC launched from the Plesetsk Missile And Space Complex (PKMTR). The debris from Iridium 33, an American commercial communications satellite, has been tracked extensively since its accidental collision with the defunct Russian satellite Cosmos 2251 in 2009. This event, occurring at high speed in low Earth orbit (LEO), generated thousands of pieces of space debris, significantly increasing the risk of further collisions. The Iridium 33 debris cloud has impacted space traffic management and orbital debris mitigation strategies, making it a subject of ongoing study in space situational awareness.

Loading next visibility...
Identifier
34014, 1993-036GZ
Orbit
LEO
Country
Flag of CISCIS
Related business
Manufacturer
Unknown
Mission
Spacecraft
Bus & Motor
Unknown
Mass
Unknown
Launch date (UTC)
1993-06-16 (32 years ago)
Launch vehicle
Unknown
Launch site
Plesetsk Missile And Space Complex (PKMTR)
Object type
Payload
Rocket body
Debris
Shape & HBR
Unknown shape, 0.1 m
Radar Cross Section
Small (<0.1 m²)

Expand to show TLE details & history
Last TLE update: 20 hours ago

TLE from 20 hours ago
0 COSMOS 2251 DEB
1 34014U 93036GZ  25309.57681093  .00005740  00000-0  89925-3 0  9993
2 34014  74.0186 353.1874 0037328 144.5309  12.1990 14.72465430887562
Epoch: 2025-11-05T13:50Z
TLE epoch observation values (Epoch: 2025-11-05T13:50:36.464Z)
Latitude
22.25674°
Longitude
-86.20621°
Altitude
629.994 km
Speed
7.559 km/s
True Right ascension
11h 05m 58s
True Declination
22° 08' 03"
Sunlit
Object was in daylight at epoch
Visualization orbit readout
Latitude
Unknown
Longitude
Unknown
Altitude
Unknown
Speed
Unknown
Apparent Right ascension
Unknown
Apparent Declination
Unknown
Sunlit
N/A
Visualization observer readout
Local Sidereal Time
05:53:57
Azimuth
Unknown
Elevation
Unknown
Doppler factor
Unknown
Orbital elements
Apogee altitude
677.031 km
Perigee altitude
624.556 km
Semi-major axis
7,028.931 km
Eccentricity
0.00373
Inclination
74.0186°
RAAN
353.1874°
Arg. of periapsis
144.5309°
True anomaly
12.2898°
Mean anomaly
12.199°
Eccentric anomaly
12.24436°
Mean motion
3.68306 °/min
Orbital period
97.74 mins
BSTAR
0.00089925
Loading maneuver chart data...
Computing Atmospheric mass density...

Documentation

Showing up to 5 results
|